Topeka, KS

4:14 AM CDT on September 25, 2017 (GMT -0500)
Billard Municipal

Weather History for KTOP - May, 2012

Change the Weather History Date:

Wednesday, May 30, 2012

  Actual Average Record
Temperature  
Mean Temperature 69 °F 69 °F  
Max Temperature 84 °F 80 °F 103 °F (1934)
Min Temperature 54 °F 59 °F 40 °F (1889)
Degree Days  
Heating Degree Days 0 1  
Month to date heating degree days 10 96  
Since 1 July heating degree days 3780 5013  
Cooling Degree Days 4 5  
Month to date cooling degree days 223 93  
Year to date cooling degree days 318 121  
Growing Degree Days 19 (Base 50)    
Moisture  
Dew Point 55 °F    
Average Humidity 67    
Maximum Humidity 100    
Minimum Humidity 34    
Precipitation  
Precipitation 1.31 in 0.16 in 2.34 in (1892)
Month to date precipitation 2.58 4.75  
Year to date precipitation 11.25 12.95  
Snow  
Snow T in 0.00 in T in (2012)
Month to date snowfall T 0.0  
Year to date snowfall 3.0 11.3  
Since 1 July snowfall 3.1 17.8  
Snow Depth 0.00 in    
Sea Level Pressure  
Sea Level Pressure 29.89 in    
Wind  
Wind Speed 10 mph (ENE)    
Max Wind Speed 39 mph    
Max Gust Speed 46 mph    
Visibility 8 miles    
Events Rain , Thunderstorm    
T = Trace of Precipitation, MM = Missing Value Source: NWS Daily Summary

Daily Weather History Graph

Daily Weather History Graph

Search for Another Location

Airport or City:

Trip Planner

Search our weather history database for the weather conditions in past years. The results will help you decide how hot, cold, wet, or windy it might be!

Date:

Astronomy

May. 30, 2012 Rise Set
Actual Time 5:59 AM CDT 8:41 PM CDT
Civil Twilight 5:27 AM CDT 9:12 PM CDT
Nautical Twilight 4:48 AM CDT 9:52 PM CDT
Astronomical Twilight 4:04 AM CDT 10:36 PM CDT
Moon 3:23 PM CDT (5/30) 2:22 AM CDT (5/30)
Length of Visible Light 15h 45m
Length of Day
14h 42m
Waxing Gibbous, 70% of the Moon is Illuminated
May 30
Waxing Gibbous
Jun 4
Full
Jun 11
Last Quarter
Jun 19
New
Jun 26
First Quarter

Hourly Weather History & Observations

Time (CDT) Temp. Heat Index Dew Point Humidity Pressure Visibility Wind Dir Wind Speed Gust Speed Precip Events Conditions
12:33 AM 64.4 °F - 51.8 °F 64% 29.95 in 1.8 mi NE 21.9 mph 26.5 mph 0.12 in Rain , Thunderstorm Heavy Thunderstorms and Rain
12:42 AM 64.4 °F - 51.8 °F 64% 29.96 in 3.0 mi NE 10.4 mph 26.5 mph 0.29 in Rain , Thunderstorm Light Thunderstorms and Rain
12:53 AM 64.0 °F - 53.1 °F 67% 29.96 in 9.0 mi ENE 4.6 mph - 0.31 in Rain , Thunderstorm Light Thunderstorms and Rain
1:41 AM 62.6 °F - 55.4 °F 77% 29.97 in 10.0 mi Calm Calm - N/A   Scattered Clouds
1:53 AM 61.0 °F - 55.9 °F 83% 29.95 in 10.0 mi Calm Calm - 0.01 in   Partly Cloudy
2:53 AM 61.0 °F - 55.9 °F 83% 29.92 in 10.0 mi SSE 3.5 mph - N/A   Scattered Clouds
3:53 AM 57.9 °F - 55.9 °F 93% 29.93 in 10.0 mi Calm Calm - N/A   Clear
4:53 AM 55.9 °F - 55.0 °F 97% 29.93 in 10.0 mi North 3.5 mph - N/A   Clear
5:53 AM 54.0 °F - 53.1 °F 97% 29.95 in 10.0 mi North 4.6 mph - N/A   Clear
6:53 AM 57.9 °F - 54.0 °F 87% 29.95 in 10.0 mi Calm Calm - N/A   Clear
7:53 AM 63.0 °F - 54.0 °F 72% 29.96 in 10.0 mi NE 6.9 mph - N/A   Clear
8:53 AM 68.0 °F - 54.0 °F 61% 29.96 in 10.0 mi NE 8.1 mph - N/A   Clear
9:53 AM 73.0 °F - 53.1 °F 49% 29.95 in 10.0 mi ENE 11.5 mph - N/A   Clear
10:53 AM 75.0 °F - 52.0 °F 44% 29.94 in 10.0 mi ENE 8.1 mph - N/A   Clear
11:53 AM 78.1 °F - 50.0 °F 37% 29.92 in 10.0 mi East 15.0 mph - N/A   Clear
12:53 PM 79.0 °F - 51.1 °F 38% 29.91 in 10.0 mi East 15.0 mph - N/A   Clear
1:53 PM 81.0 °F - 52.0 °F 36% 29.90 in 10.0 mi East 13.8 mph 18.4 mph N/A   Clear
2:53 PM 82.0 °F 81.6 °F 55.9 °F 41% 29.85 in 10.0 mi East 10.4 mph - N/A   Clear
3:53 PM 84.0 °F 82.5 °F 53.1 °F 34% 29.81 in 10.0 mi ESE 13.8 mph - N/A   Clear
4:53 PM 84.0 °F 82.9 °F 55.0 °F 37% 29.79 in 10.0 mi East 12.7 mph - N/A   Clear
5:53 PM 82.0 °F 81.7 °F 57.0 °F 42% 29.76 in 10.0 mi East 10.4 mph - N/A   Clear
6:53 PM 79.0 °F - 57.9 °F 48% 29.77 in 10.0 mi ENE 11.5 mph - N/A   Clear
7:50 PM 77.0 °F - 55.4 °F 47% 29.81 in 10.0 mi NNE 17.3 mph 21.9 mph N/A Thunderstorm Mostly Cloudy
7:53 PM 77.0 °F - 55.9 °F 48% 29.79 in 10.0 mi NE 20.7 mph 27.6 mph N/A Thunderstorm Mostly Cloudy
8:29 PM 64.4 °F - 55.4 °F 73% 29.92 in 2.5 mi WSW 11.5 mph 34.5 mph 0.04 in Rain , Thunderstorm Heavy Thunderstorms and Rain
8:37 PM 64.4 °F - 55.4 °F 73% 29.89 in 0.8 mi WNW 26.5 mph 35.7 mph 0.24 in Rain , Thunderstorm Heavy Thunderstorms and Rain
8:53 PM 62.1 °F - 57.9 °F 86% 29.90 in 2.5 mi North 19.6 mph 25.3 mph 0.88 in Rain , Thunderstorm Heavy Thunderstorms and Rain
8:58 PM 62.6 °F - 57.2 °F 82% 29.92 in 5.0 mi NNW 13.8 mph 25.3 mph 0.02 in Rain , Thunderstorm Thunderstorms and Rain
9:53 PM 62.1 °F - 59.0 °F 90% 29.94 in 4.0 mi Calm Calm - 0.22 in Rain , Thunderstorm Rain
10:36 PM 62.6 °F - 59.0 °F 88% 29.79 in 6.0 mi ESE 39.1 mph 46.0 mph 0.20 in Rain Rain
10:53 PM 63.0 °F - 60.1 °F 90% 29.80 in 10.0 mi SE 20.7 mph 35.7 mph 0.21 in Rain Light Rain
11:53 PM 63.0 °F - 60.1 °F 90% 29.82 in 10.0 mi ESE 8.1 mph - 0.00 in   Clear